T 2010 Apr. 4.326 TT MPC q 2.27420 (2000.0) P Q Peri. 49.974 -0.218474 +0.416021 Node 117.328 +0.257963 -0.847773 e 1.0 Incl. 96.480 +0.941129 +0.328949 From 26 observations 2010 Mar. 5-15.
m1 = 15.5 + 5 log d + 10.0 log r